Location: Baia Mare
(47.6567°N, 23.5850°E)
Time: 18:07:51
(UTC+03:00)

ISS - Pass Details

Date: 01 June 2018
Orbit: 403 x 408 km, 51.6° (Epoch: 20 September)

Event Time Altitude Azimuth Distance (km) Brightness Sun altitude
Rises 23:13:06 0° 293° (WNW) 2,329 1.0 -14.3°
Reaches altitude 10° 23:15:12 10° 292° (WNW) 1,465 -0.2 -14.5°
Maximum altitude 23:18:28 74° 208° (SSW) 425 -3.9 -14.8°
Enters shadow 23:19:48 33° 129° (SE) 710 -3.1 -14.9°
